{"data":{"norad_id":53571,"intl_designator":"2022-101AW","name":"STARLINK-4584","alt_names":[],"object_type":"PAYLOAD","status":"ACTIVE","operator":null,"country":"US","launch_date":"2022-08-19","launch_site_code":"AFETR","launch_vehicle":null,"mission":null,"orbit_class":"UNKNOWN","rcs_meters":null,"size_class":null,"mass_kg":null,"dimensions":null,"purposes":["comms"],"wikipedia_slug":null,"has_3d_model":false,"image_url":null,"decayed_at":null,"tle_current":{"epoch":"2026-05-25T02:46:36.537024Z","epoch_age_seconds":68164,"freshness":"FRESH","line1":"1 53571U 22101AW  26145.11570066  .00000049  00000+0  21184-4 0  9993","line2":"2 53571  53.2128  70.9763 0001222  65.1193 294.9925 15.08841539208675","mean_motion":15.08841539,"eccentricity":0.0001222,"inclination_deg":53.2128,"raan_deg":70.9763,"arg_perigee_deg":65.1193,"mean_anomaly_deg":294.9925,"bstar":2.1184e-5,"rev_number":20867,"period_min":95.437457332622,"perigee_km":538.8933204521,"apogee_km":540.58404926948,"semimajor_km":6917.8756848608,"source":"CELESTRAK","updated_at":"2026-05-25T13:38:17.471268Z"}}}